Location: UBC Liquid-Mirror Observatory
(49.2876°N, 122.5728°W)
Time: 11:06:06
(UTC-07:00)

Amateur Radio Satellites - All Passes

Search period start: 29 June 2016 10:36
Search period end: 30 June 2016 10:36
Location: UBC Liquid-Mirror Observatory, 49.2876°N, 122.5728°W

Satellite Date Start Highest point End Downlink Frequencies (MHz)
Time Altitude Azimuth
PCSat 29 Jun 10:36:07 10:41:27 51° 47° (NE) 10:46:43 145.827
BEESAT 3 29 Jun 10:37:28 10:41:19 46° 45° (NE) 10:45:08 437.485
ZACube-1 29 Jun 10:40:12 10:44:46 82° 102° (ESE) 10:49:23 437.345
M-CUBED/EXP-1 PRIME 29 Jun 10:45:54 10:49:45 86° 290° (WNW) 10:53:53 437.505
Oscar 11 29 Jun 10:48:35 10:52:58 79° 285° (WNW) 10:57:19 145.826/435.025
FUNcube-1 29 Jun 10:57:20 11:01:52 74° 287° (WNW) 11:06:25 145.935
JAS-2 29 Jun 11:00:42 11:05:50 21° 54° (NE) 11:10:39 435.910
ISS 29 Jun 11:00:58 11:04:14 74° 345° (NNW) 11:07:30 145.825
UWE-3 29 Jun 11:03:28 11:07:48 44° 291° (WNW) 11:12:13 435.000/436.395/437.385
COMPASS 1 29 Jun 11:04:52 11:08:03 21° 297° (WNW) 11:11:12 437.405
CANX-2 29 Jun 11:08:01 11:09:30 12° 304° (NW) 11:10:59 2200.000
BUGSAT 1 29 Jun 11:10:15 11:13:03 19° 62° (ENE) 11:15:53 437.445
O/OREOS (USA 219) 29 Jun 11:10:46 11:14:02 19° 46° (NE) 11:17:18 437.305
BEESAT 2 29 Jun 11:17:05 11:21:04 62° 48° (NE) 11:25:01 435.950
YUBILEINY 29 Jun 11:24:34 11:29:33 17° 72° (ENE) 11:34:32 435.215
TIGRISAT 29 Jun 11:26:27 11:30:16 31° 265° (W) 11:34:13 435.000
Cosmos 2491 29 Jun 11:30:05 11:38:34 52° 71° (ENE) 11:47:00 435.465 / 435.565
SEEDS 29 Jun 11:30:43 11:31:33 10° 305° (NW) 11:32:23 437.485
NANOSAT C BR1 29 Jun 11:31:53 11:36:01 64° 73° (ENE) 11:40:12 145.865
UNISAT 6 29 Jun 11:32:10 11:35:49 26° 267° (W) 11:39:33 437.425
HO-68 29 Jun 11:33:12 11:38:46 25° 309° (NW) 11:44:20 435.675
QB50P1 29 Jun 11:35:23 11:39:34 73° 73° (ENE) 11:43:47 145.935-145.965
POPSAT HIP 1 29 Jun 11:38:42 11:42:53 77° 73° (ENE) 11:47:06 437.405
AUBIESAT-1 29 Jun 11:40:34 11:43:58 30° 299° (WNW) 11:47:34 437.475
HUMSAT D 29 Jun 11:45:29 11:49:50 85° 287° (WNW) 11:54:09 437.325/437.525
Oscar 19 29 Jun 11:49:48 11:52:15 14° 52° (NE) 11:54:43 437.125/150
QB50P2 29 Jun 11:51:17 11:55:28 74° 257° (WSW) 11:59:43 145.880/145.840
ESTCUBE 1 29 Jun 11:51:36 11:55:14 23° 93° (E) 11:58:50 437.505/2401.250
DUCHIFAT 1 29 Jun 11:51:58 11:56:09 85° 259° (W) 12:00:22 145.980
AISAT 29 Jun 11:52:31 11:55:13 16° 90° (E) 11:57:55 437.250
POLYITAN 1 29 Jun 11:53:55 11:58:06 73° 257° (WSW) 12:02:20 437.675
CUBEBUG 2 29 Jun 11:56:05 11:58:14 13° 303° (WNW) 12:00:24 437.445
AIST 2 29 Jun 12:07:03 12:10:21 22° 33° (NNE) 12:13:38 435.215
DELFI C3 29 Jun 12:08:50 12:12:07 25° 295° (WNW) 12:15:22 145.870
DX 1 29 Jun 12:09:05 12:11:57 17° 91° (E) 12:14:47 434.975-435.025
ANTELSAT 29 Jun 12:14:48 12:16:07 11° 275° (W) 12:17:26 437.575/2403.000
Gurwin Techsat 1B 29 Jun 12:15:26 12:17:03 11° 49° (NE) 12:18:41 435.225
BEESAT 3 29 Jun 12:15:34 12:18:47 24° 244° (WSW) 12:21:58 437.485
ZACube-1 29 Jun 12:17:52 12:20:29 15° 302° (WNW) 12:23:08 437.345
PCSat 29 Jun 12:19:52 12:24:40 33° 248° (WSW) 12:29:26 145.827
M-CUBED/EXP-1 PRIME 29 Jun 12:22:22 12:23:49 12° 307° (NW) 12:25:19 437.505
Oscar 11 29 Jun 12:26:48 12:28:22 12° 304° (NW) 12:29:56 145.826/435.025
RS-15 29 Jun 12:27:40 12:38:55 66° 119° (ESE) 12:50:49 29.354- 29.394
50 SAT 29 Jun 12:33:04 12:36:34 38° 98° (E) 12:40:00 437.505
FUNcube-1 29 Jun 12:35:45 12:37:21 12° 305° (NW) 12:38:57 145.935
CUBEBUG 1 29 Jun 12:36:12 12:40:20 42° 98° (E) 12:44:26 437.445
ISS 29 Jun 12:37:40 12:40:54 55° 5° (N) 12:44:08 145.825
JAS-2 29 Jun 12:42:34 12:50:07 82° 73° (ENE) 12:56:55 435.910
BUGSAT 1 29 Jun 12:44:13 12:48:07 49° 260° (W) 12:52:03 437.445
VELOX 1 29 Jun 12:46:48 12:51:04 49° 100° (E) 12:55:20 145.980
AO-7 29 Jun 12:48:53 12:53:10 15° 32° (NNE) 12:57:26 29.400- 29.500
O/OREOS (USA 219) 29 Jun 12:49:28 12:53:56 71° 247° (WSW) 12:58:25 437.305
BEESAT 2 29 Jun 12:55:47 12:58:30 18° 247° (WSW) 13:01:12 435.950
TISAT 1 29 Jun 13:05:52 13:06:16 10° 86° (E) 13:06:40 437.305
NANOSAT C BR1 29 Jun 13:09:50 13:12:12 15° 271° (W) 13:14:35 145.865
QB50P1 29 Jun 13:13:53 13:15:52 13° 272° (W) 13:17:51 145.935-145.965
YUBILEINY 29 Jun 13:16:02 13:24:41 72° 94° (E) 13:33:25 435.215
POPSAT HIP 1 29 Jun 13:17:30 13:19:15 12° 273° (W) 13:20:57 437.405
SPROUT 29 Jun 13:21:54 13:26:07 53° 100° (E) 13:30:19 437.525
UKube-1 29 Jun 13:22:19 13:26:39 71° 103° (ESE) 13:30:57 .
HUMSAT D 29 Jun 13:22:59 13:24:46 12° 304° (WNW) 13:26:33 437.325/437.525
Oscar 19 29 Jun 13:25:36 13:30:44 72° 71° (ENE) 13:35:52 437.125/150
Cosmos 2491 29 Jun 13:27:17 13:35:18 43° 274° (W) 13:43:18 435.465 / 435.565
AISAT 29 Jun 13:27:46 13:32:08 64° 288° (WNW) 13:36:29 437.250
ESTCUBE 1 29 Jun 13:27:57 13:32:15 44° 291° (WNW) 13:36:31 437.505/2401.250
DX 1 29 Jun 13:44:14 13:48:31 58° 289° (WNW) 13:52:46 434.975-435.025
AIST 2 29 Jun 13:45:07 13:49:18 76° 233° (SW) 13:53:27 435.215
Cosmos 2504 29 Jun 13:46:10 13:53:39 40° 84° (E) 14:01:32 435.465 / 435.565
Gurwin Techsat 1B 29 Jun 13:50:44 13:55:56 57° 69° (ENE) 14:01:09 435.225
ITAMSAT 1 29 Jun 13:51:28 13:55:42 26° 60° (ENE) 13:59:56 435.822/435.867
50 SAT 29 Jun 14:07:16 14:10:01 20° 296° (WNW) 14:12:45 437.505
CUBEBUG 1 29 Jun 14:12:56 14:16:25 24° 297° (WNW) 14:19:53 437.445
ISS 29 Jun 14:14:10 14:17:26 66° 204° (SSW) 14:20:40 145.825
VELOX 1 29 Jun 14:23:53 14:27:16 22° 298° (WNW) 14:30:38 145.980
BEESAT 29 Jun 14:24:54 14:27:43 15° 89° (E) 14:30:32 436.000
ITUPSAT 1 29 Jun 14:26:36 14:29:30 16° 89° (E) 14:32:22 437.325
JAS-2 29 Jun 14:29:57 14:35:43 24° 270° (W) 14:41:08 435.910
AO-7 29 Jun 14:36:08 14:43:52 45° 56° (ENE) 14:51:39 29.400- 29.500
TISAT 1 29 Jun 14:38:20 14:42:35 88° 112° (ESE) 14:46:48 437.305
RS-15 29 Jun 14:40:30 14:51:56 55° 327° (NNW) 15:03:58 29.354- 29.394
SPROUT 29 Jun 14:58:37 15:01:44 20° 298° (WNW) 15:04:50 437.525
UKube-1 29 Jun 14:59:33 15:02:12 16° 302° (WNW) 15:04:50 .
SO-50 29 Jun 15:01:50 15:03:47 12° 108° (ESE) 15:05:43 436.795
Oscar 19 29 Jun 15:07:09 15:10:35 18° 271° (W) 15:14:04 437.125/150
YUBILEINY 29 Jun 15:14:42 15:22:18 32° 298° (WNW) 15:30:00 435.215
HORYU 2 29 Jun 15:25:34 15:27:24 12° 54° (NE) 15:29:14 437.375
AIST 2 29 Jun 15:26:30 15:27:02 10° 252° (WSW) 15:27:33 435.215
ITAMSAT 1 29 Jun 15:29:43 15:34:51 57° 259° (W) 15:40:02 435.822/435.867
Gurwin Techsat 1B 29 Jun 15:31:59 15:36:14 24° 268° (W) 15:40:31 435.225
SWISSCUBE 29 Jun 15:36:04 15:40:53 72° 103° (ESE) 15:45:40 437.505
Cosmos 2504 29 Jun 15:38:38 15:46:45 57° 288° (WNW) 15:55:24 435.465 / 435.565
ISS 29 Jun 15:51:31 15:53:23 14° 223° (SW) 15:55:15 145.825
BEESAT 29 Jun 16:01:16 16:06:05 76° 288° (WNW) 16:10:51 436.000
ITUPSAT 1 29 Jun 16:03:04 16:07:54 75° 287° (WNW) 16:12:41 437.325
NOAA 18 29 Jun 16:13:42 16:14:45 11° 46° (NE) 16:15:48 137.9125
TISAT 1 29 Jun 16:15:43 16:17:37 13° 303° (WNW) 16:19:30 437.305
AO-7 29 Jun 16:28:23 16:36:31 55° 258° (WSW) 16:44:44 29.400- 29.500
AIST 1 29 Jun 16:29:46 16:32:34 17° 85° (E) 16:35:21
MOZHAYETS 4 29 Jun 16:30:18 16:34:28 31° 95° (E) 16:38:34
KKS-1 29 Jun 16:31:42 16:35:43 32° 96° (E) 16:39:44 437.445
SO-50 29 Jun 16:38:35 16:43:28 73° 127° (SE) 16:48:20 436.795
CUTE-I 29 Jun 16:41:42 16:44:33 15° 52° (NE) 16:47:24 437.470
RS-15 29 Jun 16:56:40 17:07:40 39° 360° (N) 17:18:59 29.354- 29.394
HORYU 2 29 Jun 16:58:47 17:03:13 80° 74° (ENE) 17:07:42 437.375
STARS 29 Jun 17:00:38 17:04:38 33° 96° (E) 17:08:37 437.465
NOAA 15 29 Jun 17:04:09 17:08:30 27° 60° (ENE) 17:12:51 137.62
SWISSCUBE 29 Jun 17:14:53 17:18:10 19° 302° (WNW) 17:21:27 437.505
GONETS M04 29 Jun 17:20:58 17:27:03 22° 76° (ENE) 17:33:07
LilacSat-2 29 Jun 17:34:14 17:37:11 22° 64° (ENE) 17:40:09 437.200
Cosmos 2504 29 Jun 17:37:43 17:42:32 16° 314° (NW) 17:47:31 435.465 / 435.565
BEESAT 29 Jun 17:40:53 17:43:04 13° 306° (NW) 17:45:15 436.000
ITUPSAT 1 29 Jun 17:42:46 17:44:56 13° 307° (NW) 17:47:06 437.325
Cubesat XI-IV 29 Jun 17:44:52 17:49:51 40° 65° (ENE) 17:54:51 437.490
BRITE-PL 29 Jun 17:47:48 17:52:31 48° 71° (ENE) 17:56:53 437.365/2234.400
NOAA 18 29 Jun 17:48:56 17:54:11 49° 66° (ENE) 17:59:29 137.9125
CUBESAT XI-V 29 Jun 18:01:08 18:05:19 32° 95° (E) 18:09:27 437.345
AIST 1 29 Jun 18:05:31 18:09:45 53° 283° (WNW) 18:13:58
MOZHAYETS 4 29 Jun 18:07:25 18:11:40 36° 294° (WNW) 18:15:53
KKS-1 29 Jun 18:08:19 18:12:17 32° 295° (WNW) 18:16:14 437.445
GOMX 1 29 Jun 18:15:32 18:19:45 41° 70° (ENE) 18:23:46 467.674
CUTE-I 29 Jun 18:18:23 18:23:43 74° 72° (ENE) 18:29:06 437.470
Cosmos 2499 29 Jun 18:19:10 18:26:27 33° 81° (E) 18:34:00 435.465 / 435.565
SO-50 29 Jun 18:20:13 18:24:25 28° 327° (NNW) 18:28:35 436.795
AO-7 29 Jun 18:28:58 18:31:18 11° 280° (W) 18:33:39 29.400- 29.500
HO-68 29 Jun 18:31:34 18:37:15 26° 52° (NE) 18:42:56 435.675
CUSAT 1 29 Jun 18:33:36 18:37:30 58° 74° (ENE) 18:40:33 437.405
STARS 29 Jun 18:37:05 18:40:58 31° 295° (WNW) 18:44:51 437.465
HORYU 2 29 Jun 18:38:17 18:40:22 13° 272° (W) 18:42:28 437.375
NOAA 15 29 Jun 18:42:48 18:47:59 54° 259° (W) 18:53:11 137.62
CANX-2 29 Jun 18:52:42 18:55:23 16° 60° (ENE) 18:58:04 2200.000
DANDE 29 Jun 19:07:25 19:12:41 58° 72° (ENE) 19:16:34 436.750
LilacSat-2 29 Jun 19:07:47 19:11:18 36° 263° (W) 19:14:52 437.200
DOVE 4 29 Jun 19:09:17 19:13:30 64° 73° (ENE) 19:17:38 437.250
RS-15 29 Jun 19:11:32 19:23:30 54° 32° (NNE) 19:35:32 29.354- 29.394
CUTE 1.7 + AOD 2 29 Jun 19:11:45 19:15:00 21° 63° (ENE) 19:18:16 437.475
GONETS M04 29 Jun 19:13:54 19:22:37 87° 98° (E) 19:31:22
SEEDS 29 Jun 19:13:56 19:16:41 17° 60° (ENE) 19:19:28 437.485
Cubesat XI-IV 29 Jun 19:25:08 19:29:59 35° 264° (W) 19:34:53 437.490
BRITE-PL 29 Jun 19:27:19 19:31:13 23° 267° (W) 19:34:55 437.365/2234.400
NOAA 18 29 Jun 19:30:21 19:35:04 29° 266° (W) 19:39:51 137.9125
CUBESAT XI-V 29 Jun 19:38:32 19:42:42 34° 294° (WNW) 19:46:50 437.345
CUBEBUG 2 29 Jun 19:45:05 19:47:54 18° 60° (ENE) 19:50:47 437.445
AAUSAT CUBESAT 2 29 Jun 19:48:46 19:51:57 21° 63° (ENE) 19:55:09 437.432
STRAND 1 29 Jun 19:52:34 19:57:11 32° 95° (E) 20:01:45 437.568
GOMX 1 29 Jun 19:54:23 19:58:01 24° 266° (W) 20:01:31 467.674
CINEMA 3 29 Jun 19:55:22 19:59:26 58° 72° (ENE) 20:03:34 145.822/145.860
CUTE-I 29 Jun 20:00:39 20:04:21 19° 271° (W) 20:08:04 437.470
M-CUBED/EXP-1 PRIME 29 Jun 20:03:25 20:06:02 23° 59° (ENE) 20:08:43 437.505
SO-50 29 Jun 20:04:01 20:06:29 14° 351° (N) 20:08:55 436.795
ZACube-1 29 Jun 20:06:07 20:08:28 15° 57° (ENE) 20:10:50 437.345
Cosmos 2499 29 Jun 20:10:32 20:18:58 68° 284° (WNW) 20:27:51 435.465 / 435.565
Oscar 11 29 Jun 20:12:44 20:15:40 18° 60° (ENE) 20:18:37 145.826/435.025
HO-68 29 Jun 20:17:04 20:24:14 84° 253° (WSW) 20:31:29 435.675
FUNcube-1 29 Jun 20:22:08 20:25:08 19° 61° (ENE) 20:28:11 145.935
COMPASS 1 29 Jun 20:23:05 20:27:11 54° 71° (ENE) 20:31:19 437.405
CANX-2 29 Jun 20:26:29 20:30:45 68° 259° (W) 20:35:04 2200.000
UWE-3 29 Jun 20:28:30 20:32:14 31° 66° (ENE) 20:36:03 435.000/436.395/437.385
PRISM 29 Jun 20:31:00 20:31:46 10° 87° (E) 20:32:31 437.425
AO-85 29 Jun 20:32:33 20:34:54 13° 108° (ESE) 20:37:14 145.980
CUTE 1.7 + AOD 2 29 Jun 20:46:24 20:50:33 48° 261° (W) 20:54:45 437.475
SEEDS 29 Jun 20:47:44 20:51:57 63° 258° (WSW) 20:56:13 437.485
DOVE 4 29 Jun 20:49:23 20:51:40 14° 271° (W) 20:53:57 437.250
DANDE 29 Jun 20:51:38 20:54:35 16° 281° (W) 20:57:06 436.750
AUBIESAT-1 29 Jun 20:56:28 20:59:45 77° 68° (ENE) 21:03:09 437.475
HUMSAT D 29 Jun 21:07:06 21:09:33 15° 59° (ENE) 21:11:59 437.325/437.525
GONETS M04 29 Jun 21:13:44 21:20:41 26° 302° (WNW) 21:27:41
CUBEBUG 2 29 Jun 21:19:57 21:24:05 60° 259° (W) 21:28:23 437.445
AAUSAT CUBESAT 2 29 Jun 21:23:08 21:27:10 46° 261° (W) 21:31:15 437.432
DELFI C3 29 Jun 21:23:21 21:27:05 37° 69° (ENE) 21:30:49 145.870
RS-15 29 Jun 21:24:34 21:36:46 70° 239° (WSW) 21:48:53 29.354- 29.394
YUBILEINY 29 Jun 21:26:18 21:29:35 12° 41° (NE) 21:32:51 435.215
STRAND 1 29 Jun 21:31:37 21:36:27 41° 294° (WNW) 21:41:15 437.568
CINEMA 3 29 Jun 21:34:32 21:37:02 15° 271° (W) 21:39:32 145.822/145.860
M-CUBED/EXP-1 PRIME 29 Jun 21:37:46 21:40:34 26° 258° (WSW) 21:43:25 437.505
ZACube-1 29 Jun 21:39:55 21:44:10 78° 258° (WSW) 21:48:32 437.345
SO-50 29 Jun 21:46:01 21:48:54 16° 16° (NNE) 21:51:44 436.795
Oscar 11 29 Jun 21:47:04 21:51:23 62° 259° (W) 21:55:44 145.826/435.025
FUNcube-1 29 Jun 21:56:50 22:00:59 56° 260° (W) 22:05:17 145.935
COMPASS 1 29 Jun 22:00:13 22:03:05 18° 270° (W) 22:05:58 437.405
PRISM 29 Jun 22:03:34 22:07:42 86° 283° (WNW) 22:11:46 437.425
UWE-3 29 Jun 22:04:56 22:08:40 31° 265° (W) 22:12:32 435.000/436.395/437.385
Cosmos 2499 29 Jun 22:08:15 22:14:05 19° 309° (NW) 22:20:05 435.465 / 435.565
HO-68 29 Jun 22:08:19 22:13:02 18° 273° (W) 22:17:48 435.675
AO-85 29 Jun 22:09:14 22:14:37 69° 125° (SE) 22:19:46 145.980
VELOX 1 29 Jun 22:15:13 22:16:32 11° 54° (NE) 22:17:51 145.980
ANTELSAT 29 Jun 22:22:49 22:25:33 15° 88° (E) 22:28:18 437.575/2403.000
HUMSAT D 29 Jun 22:40:27 22:44:38 73° 258° (WSW) 22:48:54 437.325/437.525
UKube-1 29 Jun 22:47:06 22:49:26 14° 57° (ENE) 22:51:47 .
Cosmos 2491 29 Jun 22:49:17 22:50:13 10° 66° (ENE) 22:51:09 435.465 / 435.565
AISAT 29 Jun 22:53:34 22:57:08 25° 63° (ENE) 23:00:41 437.250
ESTCUBE 1 29 Jun 22:54:49 22:58:57 36° 67° (ENE) 23:03:06 437.505/2401.250
DELFI C3 29 Jun 22:58:47 23:02:03 23° 267° (W) 23:05:20 145.870
DX 1 29 Jun 23:08:16 23:11:53 26° 63° (ENE) 23:15:29 434.975-435.025
TIGRISAT 29 Jun 23:12:49 23:17:13 41° 98° (E) 23:21:39 435.000
50 SAT 29 Jun 23:14:46 23:18:09 33° 68° (ENE) 23:21:33 437.505
UNISAT 6 29 Jun 23:18:24 23:22:55 48° 99° (E) 23:27:28 437.425
YUBILEINY 29 Jun 23:20:56 23:29:21 45° 69° (ENE) 23:37:43 435.215
SO-50 29 Jun 23:26:11 23:30:40 39° 39° (NE) 23:35:00 436.795
Cosmos 2504 29 Jun 23:33:06 23:39:40 22° 54° (NE) 23:46:05 435.465 / 435.565
QB50P2 29 Jun 23:33:23 23:35:36 14° 88° (E) 23:37:50 145.880/145.840
DUCHIFAT 1 29 Jun 23:33:51 23:35:23 12° 87° (E) 23:36:55 145.980
CUBEBUG 1 29 Jun 23:35:53 23:40:10 60° 72° (ENE) 23:44:26 437.445
POLYITAN 1 29 Jun 23:35:56 23:38:15 14° 89° (E) 23:40:33 437.675
RS-15 29 Jun 23:38:53 23:46:57 21° 264° (W) 23:54:59 29.354- 29.394
PRISM 29 Jun 23:40:56 23:42:20 12° 304° (NW) 23:43:44 437.425
VELOX 1 29 Jun 23:47:50 23:52:14 73° 73° (ENE) 23:56:38 145.980
AO-85 29 Jun 23:50:48 23:55:31 31° 325° (NW) 00:00:02 145.980
ANTELSAT 29 Jun 23:58:07 00:02:47 75° 286° (WNW) 00:07:28 437.575/2403.000
TISAT 1 30 Jun 00:00:27 00:02:47 15° 58° (ENE) 00:05:08 437.305
SPROUT 30 Jun 00:19:13 00:23:25 68° 74° (ENE) 00:27:41 437.525
UKube-1 30 Jun 00:20:36 00:24:54 81° 254° (WSW) 00:29:16 .
BUGSAT 1 30 Jun 00:22:25 00:25:09 17° 91° (E) 00:27:53 437.445
AISAT 30 Jun 00:29:13 00:33:24 43° 261° (W) 00:37:37 437.250
ESTCUBE 1 30 Jun 00:31:50 00:35:49 30° 265° (W) 00:39:50 437.505/2401.250
Cosmos 2491 30 Jun 00:36:28 00:44:46 50° 89° (E) 00:53:04 435.465 / 435.565
DX 1 30 Jun 00:43:50 00:47:54 39° 262° (W) 00:52:01 434.975-435.025
NANOSAT C BR1 30 Jun 00:47:35 00:51:50 67° 103° (ESE) 00:56:03 145.865
50 SAT 30 Jun 00:48:58 00:51:55 22° 266° (W) 00:54:53 437.505
TIGRISAT 30 Jun 00:49:48 00:53:45 28° 296° (WNW) 00:57:44 435.000
QB50P1 30 Jun 00:51:29 00:55:46 77° 104° (ESE) 01:00:02 145.935-145.965
POPSAT HIP 1 30 Jun 00:54:52 00:59:09 81° 104° (ESE) 01:03:26 437.405
UNISAT 6 30 Jun 00:55:38 00:59:22 25° 297° (WNW) 01:03:08 437.425
SO-50 30 Jun 01:06:49 01:11:11 39° 240° (WSW) 01:15:24 436.795
DUCHIFAT 1 30 Jun 01:07:24 01:11:40 83° 286° (WNW) 01:15:54 145.980
QB50P2 30 Jun 01:07:38 01:11:54 71° 287° (WNW) 01:16:09 145.880/145.840
POLYITAN 1 30 Jun 01:10:16 01:14:32 70° 286° (WNW) 01:18:48 437.675
SWISSCUBE 30 Jun 01:10:26 01:13:56 21° 59° (ENE) 01:17:27 437.505
CUBEBUG 1 30 Jun 01:14:02 01:16:51 17° 270° (W) 01:19:40 437.445
YUBILEINY 30 Jun 01:17:54 01:26:18 51° 272° (W) 01:34:41 435.215
PCSat 30 Jun 01:23:55 01:27:24 18° 106° (ESE) 01:30:54 145.827
Cosmos 2504 30 Jun 01:25:47 01:34:46 77° 78° (ENE) 01:43:22 435.465 / 435.565
VELOX 1 30 Jun 01:26:54 01:29:13 14° 271° (W) 01:31:34 145.980
JAS-2 30 Jun 01:33:36 01:39:05 45° 97° (E) 01:44:08 435.910
TISAT 1 30 Jun 01:33:46 01:37:56 73° 258° (WSW) 01:42:07 437.305
Oscar 19 30 Jun 01:33:48 01:37:19 18° 89° (E) 01:40:48 437.125/150
AO-85 30 Jun 01:34:43 01:37:32 14° 348° (NNW) 01:40:15 145.980
BEESAT 30 Jun 01:34:46 01:38:52 29° 63° (ENE) 01:42:59 436.000
ITUPSAT 1 30 Jun 01:36:50 01:40:59 30° 63° (ENE) 01:45:10 437.325
ANTELSAT 30 Jun 01:36:51 01:38:43 12° 305° (NW) 01:40:35 437.575/2403.000
BUGSAT 1 30 Jun 01:56:51 02:00:51 53° 289° (WNW) 02:04:52 437.445
SPROUT 30 Jun 01:57:35 01:59:52 14° 271° (W) 02:02:09 437.525
Gurwin Techsat 1B 30 Jun 02:03:47 02:07:02 16° 88° (E) 02:10:16 435.225
BEESAT 3 30 Jun 02:10:09 02:12:57 19° 114° (ESE) 02:15:46 437.485
NANOSAT C BR1 30 Jun 02:24:27 02:27:06 16° 301° (WNW) 02:29:45 145.865
QB50P1 30 Jun 02:28:38 02:31:00 15° 302° (WNW) 02:33:22 145.935-145.965
POPSAT HIP 1 30 Jun 02:32:09 02:34:22 14° 302° (WNW) 02:36:35 437.405
Cosmos 2491 30 Jun 02:33:29 02:41:46 45° 291° (WNW) 02:50:05 435.465 / 435.565
DUCHIFAT 1 30 Jun 02:45:09 02:46:40 12° 304° (NW) 02:48:12 145.980
QB50P2 30 Jun 02:46:15 02:46:56 10° 306° (NW) 02:47:36 145.880/145.840
SWISSCUBE 30 Jun 02:46:33 02:51:18 64° 258° (WSW) 02:56:07 437.505
POLYITAN 1 30 Jun 02:49:01 02:49:33 10° 306° (NW) 02:50:04 437.675
BEESAT 2 30 Jun 02:50:38 02:54:00 27° 117° (ESE) 02:57:23 435.950
PCSat 30 Jun 03:04:40 03:10:06 86° 305° (NW) 03:15:35 145.827
O/OREOS (USA 219) 30 Jun 03:05:39 03:10:04 59° 112° (ESE) 03:14:29 437.305
BEESAT 30 Jun 03:11:59 03:16:31 41° 262° (W) 03:21:05 436.000
Oscar 19 30 Jun 03:12:03 03:17:10 71° 289° (WNW) 03:22:16 437.125/150
ITUPSAT 1 30 Jun 03:14:10 03:18:42 41° 262° (W) 03:23:16 437.325
AO-85 30 Jun 03:17:13 03:20:00 15° 13° (NNE) 03:22:40 145.980
JAS-2 30 Jun 03:19:02 03:24:01 31° 300° (WNW) 03:28:39 435.910
YUBILEINY 30 Jun 03:19:23 03:20:48 10° 295° (WNW) 03:22:13 435.215
Cosmos 2504 30 Jun 03:20:05 03:27:18 29° 281° (W) 03:34:20 435.465 / 435.565
GONETS M04 30 Jun 03:23:34 03:28:14 15° 46° (NE) 03:32:53
KKS-1 30 Jun 03:33:31 03:37:47 49° 69° (ENE) 03:42:04 437.445
MOZHAYETS 4 30 Jun 03:35:54 03:40:20 47° 69° (ENE) 03:44:49
ITAMSAT 1 30 Jun 03:38:16 03:43:09 37° 97° (E) 03:47:58 435.822/435.867
Gurwin Techsat 1B 30 Jun 03:42:19 03:47:41 83° 288° (WNW) 03:53:00 435.225
BEESAT 3 30 Jun 03:46:24 03:50:17 57° 313° (NW) 03:54:12 437.485
STARS 30 Jun 04:01:02 04:05:14 49° 69° (ENE) 04:09:28 437.465
Cosmos 2499 30 Jun 04:04:46 04:10:26 18° 49° (NE) 04:15:57 435.465 / 435.565
AIST 1 30 Jun 04:07:58 04:12:11 56° 77° (ENE) 04:16:21
AO-7 30 Jun 04:24:54 04:32:46 42° 98° (E) 04:40:34 29.400- 29.500
BEESAT 2 30 Jun 04:27:54 04:31:41 42° 317° (NW) 04:35:31 435.950
Cosmos 2491 30 Jun 04:38:30 04:41:34 12° 319° (NW) 04:44:39 435.465 / 435.565
O/OREOS (USA 219) 30 Jun 04:46:21 04:49:50 22° 312° (NW) 04:53:22 437.305
HORYU 2 30 Jun 04:47:41 04:49:09 11° 87° (E) 04:50:37 437.375
PCSat 30 Jun 04:49:56 04:54:17 24° 327° (NNW) 04:58:38 145.827
Oscar 19 30 Jun 04:53:16 04:55:37 13° 308° (NW) 04:57:58 437.125/150
AO-85 30 Jun 04:57:32 05:01:55 35° 37° (NE) 05:05:56 145.980
CUBESAT XI-V 30 Jun 05:08:06 05:12:39 51° 70° (ENE) 05:17:12 437.345
KKS-1 30 Jun 05:11:18 05:14:37 21° 268° (W) 05:17:58 437.445
MOZHAYETS 4 30 Jun 05:14:02 05:17:44 23° 268° (W) 05:21:29
ITAMSAT 1 30 Jun 05:17:50 05:22:36 36° 296° (WNW) 05:27:21 435.822/435.867
GONETS M04 30 Jun 05:18:55 05:27:30 56° 73° (ENE) 05:36:02
Gurwin Techsat 1B 30 Jun 05:23:42 05:26:52 16° 306° (NW) 05:30:02 435.225
AIST 2 30 Jun 05:24:15 05:28:17 56° 124° (ESE) 05:32:21 435.215
BEESAT 3 30 Jun 05:26:31 05:28:47 15° 335° (NNW) 05:31:05 437.485
STRAND 1 30 Jun 05:36:50 05:39:10 13° 52° (NE) 05:41:30 437.568
STARS 30 Jun 05:38:37 05:41:53 20° 268° (W) 05:45:09 437.465
AIST 1 30 Jun 05:46:43 05:49:20 16° 276° (W) 05:51:55
Cosmos 2499 30 Jun 05:56:53 06:05:42 64° 75° (ENE) 06:13:59 435.465 / 435.565
Cubesat XI-IV 30 Jun 06:00:15 06:01:35 11° 84° (E) 06:02:55 437.490
CUSAT 1 30 Jun 06:00:26 06:02:58 12° 81° (E) 06:05:22 437.405
NOAA 18 30 Jun 06:08:02 06:10:58 14° 87° (E) 06:13:53 137.9125
BEESAT 2 30 Jun 06:08:41 06:10:33 13° 339° (NNW) 06:12:25 435.950
AO-7 30 Jun 06:17:41 06:25:49 57° 299° (WNW) 06:33:54 29.400- 29.500
HORYU 2 30 Jun 06:21:51 06:26:23 88° 105° (ESE) 06:30:54 437.375
CUTE-I 30 Jun 06:31:53 06:35:57 21° 91° (E) 06:39:58 437.470
LilacSat-2 30 Jun 06:37:20 06:40:06 18° 92° (E) 06:42:51 437.200
PCSat 30 Jun 06:37:36 06:39:45 12° 353° (N) 06:41:55 145.827
DANDE 30 Jun 06:38:02 06:42:16 15° 79° (ENE) 06:46:17 436.750
AO-85 30 Jun 06:38:07 06:42:29 43° 240° (WSW) 06:46:29 145.980
CUBESAT XI-V 30 Jun 06:46:40 06:50:19 22° 269° (W) 06:53:59 437.345
NOAA 15 30 Jun 06:53:34 06:58:32 40° 98° (E) 07:03:27 137.62
AIST 2 30 Jun 07:03:32 07:07:03 26° 324° (NW) 07:10:35 435.215
DOVE 4 30 Jun 07:04:54 07:06:46 12° 88° (E) 07:08:39 437.250
STRAND 1 30 Jun 07:12:20 07:17:27 69° 71° (ENE) 07:22:36 437.568
PHONESAT 2.4 30 Jun 07:14:23 07:15:19 11° 163° (SSE) 07:16:17 2401.200-2431.200
GONETS M04 30 Jun 07:16:12 07:24:04 40° 275° (W) 07:31:58
PRISM 30 Jun 07:23:29 07:25:57 16° 59° (ENE) 07:28:26 437.425
BRITE-PL 30 Jun 07:26:18 07:30:29 82° 104° (ESE) 07:34:40 437.365/2234.400
CUSAT 1 30 Jun 07:36:54 07:44:15 61° 97° (E) 07:50:15 437.405
Cubesat XI-IV 30 Jun 07:37:15 07:42:40 70° 103° (ESE) 07:48:01 437.490
HO-68 30 Jun 07:41:58 07:45:54 15° 84° (E) 07:49:49 435.675
NOAA 18 30 Jun 07:46:52 07:52:28 85° 107° (ESE) 07:58:02 137.9125
CINEMA 3 30 Jun 07:47:20 07:48:46 11° 86° (E) 07:50:11 145.822/145.860
GOMX 1 30 Jun 07:50:08 07:54:20 67° 102° (ESE) 07:58:40 467.674
Cosmos 2499 30 Jun 07:50:39 07:58:19 35° 278° (W) 08:05:37 435.465 / 435.565
HORYU 2 30 Jun 07:59:56 08:02:19 14° 304° (NW) 08:04:41 437.375
CANX-2 30 Jun 08:08:22 08:11:06 16° 89° (E) 08:13:48 2200.000
LilacSat-2 30 Jun 08:10:55 08:14:38 44° 289° (WNW) 08:18:20 437.200
CUTE-I 30 Jun 08:11:07 08:16:28 65° 289° (WNW) 08:21:47 437.470
AO-7 30 Jun 08:11:39 08:16:54 19° 323° (NW) 08:22:09 29.400- 29.500
DANDE 30 Jun 08:15:48 08:24:02 63° 96° (E) 08:31:17 436.750
PCSat 30 Jun 08:22:25 08:25:35 15° 20° (NNE) 08:28:44 145.827
CUTE 1.7 + AOD 2 30 Jun 08:27:32 08:30:54 22° 92° (E) 08:34:13 437.475
SEEDS 30 Jun 08:28:25 08:31:10 17° 90° (E) 08:33:54 437.485
ISS 30 Jun 08:32:57 08:35:22 19° 140° (SE) 08:37:47 145.825
NOAA 15 30 Jun 08:33:33 08:38:15 34° 297° (WNW) 08:42:55 137.62
DOVE 4 30 Jun 08:40:41 08:45:01 81° 283° (WNW) 08:49:33 437.250
BEESAT 3 30 Jun 08:45:35 08:47:37 13° 23° (NNE) 08:49:38 437.485
AIST 2 30 Jun 08:45:55 08:46:55 11° 348° (NNW) 08:47:56 435.215
UNISAT 6 30 Jun 08:48:53 08:49:39 10° 53° (NE) 08:50:24 437.425
PHONESAT 2.4 30 Jun 08:49:12 08:51:13 16° 180° (S) 08:53:14 2401.200-2431.200
STRAND 1 30 Jun 08:53:31 08:57:08 19° 270° (W) 09:00:46 437.568
PRISM 30 Jun 08:56:40 09:00:48 68° 257° (WSW) 09:04:57 437.425
AAUSAT CUBESAT 2 30 Jun 09:01:41 09:04:51 21° 92° (E) 09:08:00 437.432
BRITE-PL 30 Jun 09:06:34 09:08:25 13° 303° (WNW) 09:10:14 437.365/2234.400
CUBEBUG 2 30 Jun 09:06:35 09:10:14 23° 92° (E) 09:13:56 437.445
M-CUBED/EXP-1 PRIME 30 Jun 09:13:56 09:14:24 10° 95° (E) 09:14:53 437.505
Cubesat XI-IV 30 Jun 09:18:11 09:22:15 22° 302° (WNW) 09:26:19 437.490
CUSAT 1 30 Jun 09:20:12 09:26:33 31° 292° (WNW) 09:31:53 437.405
CINEMA 3 30 Jun 09:21:59 09:26:33 84° 104° (ESE) 09:31:18 145.822/145.860
ZACube-1 30 Jun 09:24:51 09:27:47 17° 89° (E) 09:30:43 437.345
ANTELSAT 30 Jun 09:25:36 09:28:55 21° 61° (ENE) 09:32:18 437.575/2403.000
BEESAT 2 30 Jun 09:27:06 09:29:40 16° 27° (NNE) 09:32:14 435.950
HO-68 30 Jun 09:27:41 09:34:55 72° 105° (ESE) 09:42:06 435.675
NOAA 18 30 Jun 09:28:36 09:32:28 20° 306° (NW) 09:36:21 137.9125
GOMX 1 30 Jun 09:29:31 09:32:01 16° 300° (WNW) 09:34:35 467.674
Oscar 11 30 Jun 09:30:50 09:33:55 19° 91° (E) 09:36:58 145.826/435.025
COMPASS 1 30 Jun 09:37:07 09:41:17 57° 101° (E) 09:45:23 437.405
FUNcube-1 30 Jun 09:40:52 09:44:25 22° 92° (E) 09:47:59 145.935
CANX-2 30 Jun 09:43:07 09:47:22 60° 287° (WNW) 09:51:33 2200.000
UWE-3 30 Jun 09:49:23 09:53:44 39° 97° (E) 09:58:06 435.000/436.395/437.385
RS-15 30 Jun 09:50:02 09:53:55 12° 90° (E) 09:57:50 29.354- 29.394
CUTE-I 30 Jun 09:53:07 09:55:32 13° 310° (NW) 09:57:58 437.470
DANDE 30 Jun 09:59:42 10:07:13 37° 293° (WNW) 10:13:52 436.750
CUTE 1.7 + AOD 2 30 Jun 10:02:52 10:06:56 43° 290° (WNW) 10:10:59 437.475
SEEDS 30 Jun 10:03:04 10:07:15 57° 288° (WNW) 10:11:23 437.485
AUBIESAT-1 30 Jun 10:04:41 10:08:09 29° 103° (ESE) 10:11:49 437.475
PCSat 30 Jun 10:05:21 10:10:30 41° 44° (NE) 10:15:37 145.827
ISS 30 Jun 10:08:10 10:11:27 82° 158° (SSE) 10:14:43 145.825
NANOSAT C BR1 30 Jun 10:11:08 10:12:37 12° 56° (NE) 10:14:06 145.865
JAS-2 30 Jun 10:11:31 10:11:52 10° 43° (NE) 10:12:12 435.910
QB50P1 30 Jun 10:14:44 10:16:43 13° 57° (ENE) 10:18:43 145.935-145.965
TIGRISAT 30 Jun 10:15:26 10:19:40 56° 71° (ENE) 10:24:02 435.000
POPSAT HIP 1 30 Jun 10:17:57 10:20:07 14° 58° (ENE) 10:22:17 437.405
DOVE 4 30 Jun 10:20:35 10:22:05 12° 303° (WNW) 10:23:37 437.250
HUMSAT D 30 Jun 10:20:55 10:23:21 15° 88° (E) 10:25:46 437.325/437.525
UNISAT 6 30 Jun 10:21:11 10:25:29 68° 73° (ENE) 10:29:56 437.425
BEESAT 3 30 Jun 10:22:22 10:26:14 47° 45° (NE) 10:30:04 437.485
PHONESAT 2.4 30 Jun 10:26:03 10:27:06 11° 196° (SSW) 10:28:09 2401.200-2431.200
AIST 2 30 Jun 10:26:19 10:27:18 11° 12° (NNE) 10:28:17 435.215
DUCHIFAT 1 30 Jun 10:29:26 10:32:00 16° 59° (ENE) 10:34:35 145.980
QB50P2 30 Jun 10:29:52 10:32:49 19° 61° (ENE) 10:35:46 145.880/145.840
